Time,TemperatureF,DewpointF,PressureIn,WindDirection,WindDirectionDegrees,WindSpeedMPH,WindSpeedGustMPH,Humidity,HourlyPrecipIn,Conditions,Clouds,dailyrainin,SoftwareType,DateUTC
2013-02-24 00:00:00,38.8,36.7,29.79,NE,45,4.0,6.9,92,0.14,RA,,0.39,WeatherDisplay:10.37,2013-02-24 05:00:00,
2013-02-24 00:05:00,39.0,37.2,29.78,East,90,6.9,9.2,93,0.14,RA,,0.01,WeatherDisplay:10.37,2013-02-24 05:05:00,
2013-02-24 00:10:00,39.0,37.2,29.78,East,90,3.3,4.6,93,0.14,RA,,0.01,WeatherDisplay:10.37,2013-02-24 05:10:00,
2013-02-24 00:15:00,39.2,37.3,29.78,NE,45,7.4,9.2,93,0.14,RA,,0.02,WeatherDisplay:10.37,2013-02-24 05:15:00,
2013-02-24 00:20:00,39.2,37.3,29.77,SE,135,4.0,4.6,93,0.13,RA,,0.02,WeatherDisplay:10.37,2013-02-24 05:20:00,
2013-02-24 00:25:00,39.2,37.3,29.77,East,90,6.9,9.2,93,0.12,CLR,,0.02,WeatherDisplay:10.37,2013-02-24 05:25:00,
2013-02-24 00:30:00,39.2,37.3,29.77,NE,45,4.7,5.8,93,0.12,RA,,0.03,WeatherDisplay:10.37,2013-02-24 05:30:00,
2013-02-24 00:35:00,39.4,37.5,29.76,ENE,68,9.2,9.2,93,0.10,RA,,0.03,WeatherDisplay:10.37,2013-02-24 05:35:00,
2013-02-24 00:40:00,39.6,37.7,29.76,ESE,112,3.1,10.4,93,0.10,RA,,0.04,WeatherDisplay:10.37,2013-02-24 05:40:00,
2013-02-24 00:45:00,39.6,37.7,29.76,East,90,3.6,11.5,93,0.10,RA,,0.05,WeatherDisplay:10.37,2013-02-24 05:45:00,
2013-02-24 00:50:00,39.7,37.9,29.76,ESE,112,3.8,13.8,93,0.07,RA,,0.05,WeatherDisplay:10.37,2013-02-24 05:50:00,
2013-02-24 00:55:00,39.7,37.9,29.76,SE,135,4.0,8.1,93,0.06,,,0.05,WeatherDisplay:10.37,2013-02-24 05:55:00,
2013-02-24 01:00:00,39.9,38.1,29.76,ESE,112,8.5,8.5,93,0.05,CLR,,0.05,WeatherDisplay:10.37,2013-02-24 06:00:00,
2013-02-24 01:05:00,39.9,38.1,29.76,ESE,112,3.3,8.1,93,0.04,CLR,,0.05,WeatherDisplay:10.37,2013-02-24 06:05:00,
2013-02-24 01:10:00,40.1,38.2,29.76,North,0,5.4,10.4,93,0.04,CLR,,0.05,WeatherDisplay:10.37,2013-02-24 06:10:00,
2013-02-24 01:15:00,40.3,38.4,29.75,ENE,68,1.8,4.6,93,0.03,CLR,,0.05,WeatherDisplay:10.37,2013-02-24 06:15:00,
2013-02-24 01:20:00,40.3,38.4,29.75,ESE,112,6.2,9.2,93,0.03,CLR,,0.05,WeatherDisplay:10.37,2013-02-24 06:20:00,
2013-02-24 01:25:00,40.5,38.6,29.74,ENE,68,7.6,7.6,93,0.03,CLR,,0.05,WeatherDisplay:10.37,2013-02-24 06:25:00,
2013-02-24 01:30:00,40.5,38.6,29.74,East,90,7.1,9.2,93,0.03,RA,,0.06,WeatherDisplay:10.37,2013-02-24 06:30:00,
2013-02-24 01:35:00,40.6,38.8,29.74,East,90,2.4,10.4,93,0.03,RA,,0.06,WeatherDisplay:10.37,2013-02-24 06:35:00,
2013-02-24 01:40:00,40.8,39.0,29.74,ENE,68,6.2,6.9,93,0.03,RA,,0.07,WeatherDisplay:10.37,2013-02-24 06:40:00,
2013-02-24 01:45:00,40.8,39.0,29.73,East,90,8.1,8.1,93,0.03,RA,,0.08,WeatherDisplay:10.37,2013-02-24 06:45:00,
2013-02-24 01:50:00,41.0,39.1,29.72,NNE,22,3.3,6.9,93,0.04,RA,,0.09,WeatherDisplay:10.37,2013-02-24 06:50:00,
2013-02-24 01:55:00,41.2,39.3,29.72,NE,45,5.4,5.8,93,0.05,RA,,0.10,WeatherDisplay:10.37,2013-02-24 06:55:00,
2013-02-24 02:00:00,41.2,39.3,29.72,ENE,68,4.9,9.2,93,0.05,RA,,0.10,WeatherDisplay:10.37,2013-02-24 07:00:00,
2013-02-24 02:05:00,41.4,39.5,29.72,East,90,4.3,9.2,93,0.05,,,0.10,WeatherDisplay:10.37,2013-02-24 07:05:00,
2013-02-24 02:10:00,41.4,39.5,29.71,East,90,6.4,6.4,93,0.06,RA,,0.11,WeatherDisplay:10.37,2013-02-24 07:10:00,
2013-02-24 02:15:00,41.4,39.2,29.71,NNE,22,7.6,7.6,92,0.06,RA,,0.11,WeatherDisplay:10.37,2013-02-24 07:15:00,
2013-02-24 02:20:00,41.4,39.2,29.70,ENE,68,1.8,5.8,92,0.06,CLR,,0.11,WeatherDisplay:10.37,2013-02-24 07:20:00,
2013-02-24 02:25:00,41.4,39.2,29.70,South,180,4.3,8.1,92,0.06,CLR,,0.11,WeatherDisplay:10.37,2013-02-24 07:25:00,
2013-02-24 02:30:00,41.4,39.2,29.69,ENE,68,3.3,4.6,92,0.05,CLR,,0.11,WeatherDisplay:10.37,2013-02-24 07:30:00,
2013-02-24 02:35:00,41.4,39.2,29.69,East,90,6.2,6.9,92,0.05,CLR,,0.11,WeatherDisplay:10.37,2013-02-24 07:35:00,
2013-02-24 02:40:00,41.4,39.2,29.69,ENE,68,2.4,5.8,92,0.05,CLR,,0.11,WeatherDisplay:10.37,2013-02-24 07:40:00,
2013-02-24 02:45:00,41.4,39.2,29.68,NE,45,6.2,6.9,92,0.03,CLR,,0.11,WeatherDisplay:10.37,2013-02-24 07:45:00,
2013-02-24 02:50:00,41.4,39.2,29.68,East,90,5.6,6.9,92,0.02,CLR,,0.11,WeatherDisplay:10.37,2013-02-24 07:50:00,
2013-02-24 02:55:00,41.5,39.4,29.67,ESE,112,7.6,9.2,92,0.01,CLR,,0.11,WeatherDisplay:10.37,2013-02-24 07:55:00,
2013-02-24 03:00:00,41.5,39.4,29.67,East,90,2.2,9.2,92,0.02,RA,,0.12,WeatherDisplay:10.37,2013-02-24 08:00:00,
2013-02-24 03:05:00,41.7,39.6,29.67,South,180,2.9,4.6,92,0.02,RA,,0.12,WeatherDisplay:10.37,2013-02-24 08:05:00,
2013-02-24 03:10:00,41.7,39.6,29.66,SE,135,3.3,8.1,92,0.02,RA,,0.13,WeatherDisplay:10.37,2013-02-24 08:10:00,
2013-02-24 03:15:00,41.7,39.6,29.66,NNE,22,5.2,11.5,92,0.02,RA,,0.13,WeatherDisplay:10.37,2013-02-24 08:15:00,
2013-02-24 03:20:00,41.7,39.6,29.65,East,90,6.9,11.4,92,0.03,RA,,0.14,WeatherDisplay:10.37,2013-02-24 08:20:00,
2013-02-24 03:25:00,41.9,39.7,29.65,SE,135,3.3,11.5,92,0.03,RA,,0.14,WeatherDisplay:10.37,2013-02-24 08:25:00,
2013-02-24 03:30:00,42.1,39.9,29.64,ENE,68,4.0,5.8,92,0.03,,,0.14,WeatherDisplay:10.37,2013-02-24 08:30:00,
2013-02-24 03:35:00,42.1,40.2,29.64,East,90,3.8,8.1,93,0.04,RA,,0.15,WeatherDisplay:10.37,2013-02-24 08:35:00,
2013-02-24 03:40:00,42.3,40.4,29.64,ESE,112,7.6,7.6,93,0.05,RA,,0.17,WeatherDisplay:10.37,2013-02-24 08:40:00,
2013-02-24 03:45:00,42.3,40.1,29.64,NE,45,2.2,5.2,92,0.05,RA,,0.17,WeatherDisplay:10.37,2013-02-24 08:45:00,
2013-02-24 03:50:00,42.3,40.4,29.64,NE,45,6.7,10.4,93,0.05,,,0.17,WeatherDisplay:10.37,2013-02-24 08:50:00,
2013-02-24 03:55:00,42.3,40.1,29.64,NE,45,5.4,8.1,92,0.06,RA,,0.17,WeatherDisplay:10.37,2013-02-24 08:55:00,
2013-02-24 04:00:00,42.4,40.6,29.64,ESE,112,3.3,6.9,93,0.05,RA,,0.17,WeatherDisplay:10.37,2013-02-24 09:00:00,
2013-02-24 04:05:00,42.4,40.3,29.64,NE,45,2.6,6.9,92,0.05,,,0.17,WeatherDisplay:10.37,2013-02-24 09:05:00,
2013-02-24 04:10:00,42.4,40.6,29.64,ENE,68,4.9,8.1,93,0.05,RA,,0.19,WeatherDisplay:10.37,2013-02-24 09:10:00,
2013-02-24 04:15:00,42.4,40.6,29.63,NE,45,5.4,9.2,93,0.06,RA,,0.19,WeatherDisplay:10.37,2013-02-24 09:15:00,
2013-02-24 04:20:00,42.4,40.6,29.63,ESE,112,4.3,8.1,93,0.06,RA,,0.20,WeatherDisplay:10.37,2013-02-24 09:20:00,
2013-02-24 04:25:00,42.4,40.6,29.63,NE,45,7.8,7.8,93,0.07,RA,,0.22,WeatherDisplay:10.37,2013-02-24 09:25:00,
2013-02-24 04:30:00,42.6,40.7,29.63,ENE,68,8.5,11.5,93,0.07,RA,,0.22,WeatherDisplay:10.37,2013-02-24 09:30:00,
2013-02-24 04:35:00,42.6,40.7,29.63,ESE,112,4.0,8.1,93,0.07,RA,,0.22,WeatherDisplay:10.37,2013-02-24 09:35:00,
2013-02-24 04:40:00,42.8,40.9,29.62,NE,45,5.2,6.9,93,0.06,RA,,0.24,WeatherDisplay:10.37,2013-02-24 09:40:00,
2013-02-24 04:45:00,42.6,40.7,29.62,ENE,68,7.4,7.4,93,0.07,RA,,0.24,WeatherDisplay:10.37,2013-02-24 09:45:00,
2013-02-24 04:50:00,42.6,40.5,29.62,ENE,68,7.6,7.6,92,0.07,RA,,0.24,WeatherDisplay:10.37,2013-02-24 09:50:00,
2013-02-24 04:55:00,42.8,40.9,29.62,ENE,68,6.7,9.2,93,0.06,CLR,,0.24,WeatherDisplay:10.37,2013-02-24 09:55:00,
2013-02-24 05:00:00,42.8,40.9,29.61,SE,135,7.6,7.6,93,0.07,RA,,0.24,WeatherDisplay:10.37,2013-02-24 10:00:00,
2013-02-24 05:05:00,42.8,40.6,29.61,ENE,68,5.9,10.4,92,0.07,RA,,0.24,WeatherDisplay:10.37,2013-02-24 10:05:00,
2013-02-24 05:10:00,42.8,40.6,29.61,NNE,22,7.4,9.2,92,0.06,CLR,,0.24,WeatherDisplay:10.37,2013-02-24 10:10:00,
2013-02-24 05:15:00,42.8,40.6,29.61,ENE,68,10.5,10.5,92,0.05,CLR,,0.24,WeatherDisplay:10.37,2013-02-24 10:15:00,
2013-02-24 05:20:00,43.0,40.8,29.61,NE,45,4.5,9.2,92,0.04,CLR,,0.24,WeatherDisplay:10.37,2013-02-24 10:20:00,
2013-02-24 05:25:00,43.0,40.8,29.61,East,90,5.9,7.1,92,0.04,RA,,0.26,WeatherDisplay:10.37,2013-02-24 10:25:00,
2013-02-24 05:30:00,43.0,40.8,29.61,ESE,112,4.0,10.4,92,0.04,RA,,0.26,WeatherDisplay:10.37,2013-02-24 10:30:00,
2013-02-24 05:35:00,43.0,40.8,29.61,ENE,68,8.7,8.7,92,0.04,RA,,0.26,WeatherDisplay:10.37,2013-02-24 10:35:00,
2013-02-24 05:40:00,43.0,40.8,29.61,North,0,5.4,10.4,92,0.04,RA,,0.26,WeatherDisplay:10.37,2013-02-24 10:40:00,
2013-02-24 05:45:00,43.0,40.8,29.61,NNE,22,3.3,10.4,92,0.04,RA,,0.28,WeatherDisplay:10.37,2013-02-24 10:45:00,
2013-02-24 05:50:00,43.0,40.8,29.61,East,90,7.6,12.7,92,0.04,RA,,0.28,WeatherDisplay:10.37,2013-02-24 10:50:00,
2013-02-24 05:55:00,43.2,41.0,29.61,East,90,8.1,8.1,92,0.04,,,0.28,WeatherDisplay:10.37,2013-02-24 10:55:00,
2013-02-24 06:00:00,43.2,41.0,29.61,East,90,4.7,10.4,92,0.04,RA,,0.29,WeatherDisplay:10.37,2013-02-24 11:00:00,
2013-02-24 06:05:00,43.2,41.0,29.61,ENE,68,6.0,6.9,92,0.04,RA,,0.29,WeatherDisplay:10.37,2013-02-24 11:05:00,
2013-02-24 06:10:00,43.2,41.0,29.61,ENE,68,4.0,4.6,92,0.04,CLR,,0.29,WeatherDisplay:10.37,2013-02-24 11:10:00,
2013-02-24 06:15:00,43.2,41.0,29.61,East,90,7.8,8.1,92,0.04,CLR,,0.29,WeatherDisplay:10.37,2013-02-24 11:15:00,
2013-02-24 06:20:00,43.2,41.0,29.62,ENE,68,3.1,11.5,92,0.05,RA,,0.30,WeatherDisplay:10.37,2013-02-24 11:20:00,
2013-02-24 06:25:00,43.2,41.0,29.62,ENE,68,3.8,3.8,92,0.04,RA,,0.30,WeatherDisplay:10.37,2013-02-24 11:25:00,
2013-02-24 06:30:00,43.3,41.2,29.62,South,180,9.7,9.9,92,0.04,CLR,,0.30,WeatherDisplay:10.37,2013-02-24 11:30:00,
2013-02-24 06:35:00,43.2,41.0,29.62,ENE,68,5.4,10.4,92,0.04,RA,,0.31,WeatherDisplay:10.37,2013-02-24 11:35:00,
2013-02-24 06:40:00,43.3,41.2,29.62,NE,45,5.9,5.9,92,0.05,RA,,0.31,WeatherDisplay:10.37,2013-02-24 11:40:00,
2013-02-24 06:45:00,43.2,41.0,29.62,East,90,7.6,7.6,92,0.05,RA,,0.31,WeatherDisplay:10.37,2013-02-24 11:45:00,
2013-02-24 06:50:00,43.3,41.2,29.62,ENE,68,4.3,6.9,92,0.05,RA,,0.33,WeatherDisplay:10.37,2013-02-24 11:50:00,
2013-02-24 06:55:00,43.3,41.2,29.62,ENE,68,5.2,5.8,92,0.05,RA,,0.33,WeatherDisplay:10.37,2013-02-24 11:55:00,
2013-02-24 07:00:00,43.3,41.2,29.62,East,90,5.9,8.1,92,0.05,RA,,0.33,WeatherDisplay:10.37,2013-02-24 12:00:00,
2013-02-24 07:05:00,43.3,41.2,29.61,ENE,68,2.0,6.9,92,0.06,RA,,0.35,WeatherDisplay:10.37,2013-02-24 12:05:00,
2013-02-24 07:10:00,43.3,41.2,29.61,East,90,4.7,5.8,92,0.06,RA,,0.35,WeatherDisplay:10.37,2013-02-24 12:10:00,
2013-02-24 07:15:00,43.3,41.2,29.61,NE,45,3.6,6.9,92,0.07,RA,,0.37,WeatherDisplay:10.37,2013-02-24 12:15:00,
2013-02-24 07:20:00,43.3,41.2,29.61,ENE,68,3.8,3.8,92,0.07,RA,,0.37,WeatherDisplay:10.37,2013-02-24 12:20:00,
2013-02-24 07:25:00,43.3,41.2,29.61,NNE,22,3.6,5.8,92,0.08,RA,,0.38,WeatherDisplay:10.37,2013-02-24 12:25:00,
2013-02-24 07:30:00,43.3,41.2,29.61,North,0,2.4,6.9,92,0.09,RA,,0.39,WeatherDisplay:10.37,2013-02-24 12:30:00,
2013-02-24 07:35:00,43.2,41.0,29.61,NNE,22,2.4,3.5,92,0.08,RA,,0.39,WeatherDisplay:10.37,2013-02-24 12:35:00,
2013-02-24 07:40:00,43.2,41.0,29.61,ENE,68,6.0,6.0,92,0.08,RA,,0.40,WeatherDisplay:10.37,2013-02-24 12:40:00,
2013-02-24 07:45:00,43.2,41.0,29.60,North,0,0.5,5.8,92,0.08,RA,,0.40,WeatherDisplay:10.37,2013-02-24 12:45:00,
2013-02-24 07:50:00,43.2,41.0,29.60,ENE,68,3.8,4.6,92,0.08,RA,,0.41,WeatherDisplay:10.37,2013-02-24 12:50:00,
2013-02-24 07:55:00,43.2,41.0,29.60,NNE,22,2.4,5.8,92,0.09,RA,,0.42,WeatherDisplay:10.37,2013-02-24 12:55:00,
2013-02-24 08:00:00,43.2,41.0,29.60,NE,45,3.8,3.8,92,0.08,RA,,0.42,WeatherDisplay:10.37,2013-02-24 13:00:00,
2013-02-24 08:05:00,43.2,41.0,29.60,ENE,68,2.4,2.4,92,0.08,RA,,0.43,WeatherDisplay:10.37,2013-02-24 13:05:00,
2013-02-24 08:10:00,43.3,41.2,29.60,NNE,22,2.2,8.1,92,0.08,RA,,0.43,WeatherDisplay:10.37,2013-02-24 13:10:00,
2013-02-24 08:15:00,43.5,41.4,29.59,NE,45,7.6,7.6,92,0.07,CLR,,0.43,WeatherDisplay:10.37,2013-02-24 13:15:00,
2013-02-24 08:20:00,43.5,41.4,29.59,NE,45,1.6,5.8,92,0.07,RA,,0.44,WeatherDisplay:10.37,2013-02-24 13:20:00,
2013-02-24 08:25:00,43.5,41.4,29.59,North,0,3.3,3.6,92,0.06,RA,,0.44,WeatherDisplay:10.37,2013-02-24 13:25:00,
2013-02-24 08:30:00,43.5,41.4,29.58,ENE,68,1.4,5.8,92,0.06,RA,,0.45,WeatherDisplay:10.37,2013-02-24 13:30:00,
2013-02-24 08:35:00,43.5,41.4,29.58,ENE,68,7.8,7.8,92,0.08,RA,,0.47,WeatherDisplay:10.37,2013-02-24 13:35:00,
2013-02-24 08:40:00,43.7,41.5,29.58,NE,45,6.0,8.1,92,0.08,RA,,0.48,WeatherDisplay:10.37,2013-02-24 13:40:00,
2013-02-24 08:45:00,43.9,41.7,29.57,SE,135,4.0,4.6,92,0.09,RA,,0.49,WeatherDisplay:10.37,2013-02-24 13:45:00,
2013-02-24 08:50:00,43.9,41.7,29.57,NE,45,6.9,8.1,92,0.08,RA,,0.49,WeatherDisplay:10.37,2013-02-24 13:50:00,
2013-02-24 08:55:00,44.1,41.9,29.57,NE,45,4.5,13.8,92,0.08,RA,,0.51,WeatherDisplay:10.37,2013-02-24 13:55:00,
2013-02-24 09:00:00,44.1,41.9,29.57,NE,45,3.8,4.6,92,0.09,RA,,0.52,WeatherDisplay:10.37,2013-02-24 14:00:00,
2013-02-24 09:05:00,44.2,42.1,29.56,ENE,68,8.1,10.4,92,0.10,RA,,0.53,WeatherDisplay:10.37,2013-02-24 14:05:00,
2013-02-24 09:10:00,44.2,41.8,29.57,East,90,3.3,5.8,91,0.10,RA,,0.54,WeatherDisplay:10.37,2013-02-24 14:10:00,
2013-02-24 09:15:00,44.2,41.8,29.56,NNE,22,1.4,8.1,91,0.11,RA,,0.54,WeatherDisplay:10.37,2013-02-24 14:15:00,
2013-02-24 09:20:00,44.2,41.8,29.56,NE,45,1.4,3.5,91,0.11,RA,,0.55,WeatherDisplay:10.37,2013-02-24 14:20:00,
2013-02-24 09:25:00,44.1,41.6,29.56,ENE,68,9.2,9.2,91,0.12,RA,,0.56,WeatherDisplay:10.37,2013-02-24 14:25:00,
2013-02-24 09:30:00,44.2,41.8,29.55,ESE,112,2.9,9.2,91,0.11,RA,,0.56,WeatherDisplay:10.37,2013-02-24 14:30:00,
2013-02-24 09:35:00,44.2,41.8,29.55,ENE,68,5.6,8.1,91,0.10,RA,,0.57,WeatherDisplay:10.37,2013-02-24 14:35:00,
2013-02-24 09:40:00,44.2,41.8,29.54,NNE,22,12.1,12.1,91,0.09,RA,,0.57,WeatherDisplay:10.37,2013-02-24 14:40:00,
2013-02-24 09:45:00,44.2,41.8,29.54,East,90,3.1,6.0,91,0.08,,,0.58,WeatherDisplay:10.37,2013-02-24 14:45:00,
2013-02-24 09:50:00,44.2,41.8,29.53,ENE,68,4.0,8.5,91,0.09,RA,,0.58,WeatherDisplay:10.37,2013-02-24 14:50:00,
2013-02-24 09:56:00,44.4,42.0,29.52,ENE,68,4.3,9.2,91,0.08,RA,,0.59,WeatherDisplay:10.37,2013-02-24 14:56:00,
2013-02-24 10:01:00,44.6,42.1,29.53,ENE,68,3.1,4.6,91,0.08,RA,,0.59,WeatherDisplay:10.37,2013-02-24 15:01:00,
2013-02-24 10:06:00,44.6,42.1,29.53,North,0,4.7,10.4,91,0.07,RA,,0.60,WeatherDisplay:10.37,2013-02-24 15:06:00,
2013-02-24 10:11:00,44.8,42.3,29.53,ESE,112,1.6,6.9,91,0.07,RA,,0.60,WeatherDisplay:10.37,2013-02-24 15:11:00,
2013-02-24 10:16:00,45.0,42.5,29.53,NNE,22,3.1,4.6,91,0.06,,,0.60,WeatherDisplay:10.37,2013-02-24 15:16:00,
2013-02-24 10:21:00,45.0,42.5,29.53,ENE,68,5.4,5.8,91,0.06,RA,,0.61,WeatherDisplay:10.37,2013-02-24 15:21:00,
2013-02-24 10:26:00,44.8,42.3,29.52,NE,45,0.5,2.3,91,0.05,RA,,0.61,WeatherDisplay:10.37,2013-02-24 15:26:00,
2013-02-24 10:31:00,44.6,42.1,29.52,NNE,22,1.1,3.5,91,0.05,CLR,,0.61,WeatherDisplay:10.37,2013-02-24 15:31:00,
2013-02-24 10:36:00,44.6,41.8,29.52,NW,315,3.3,4.6,90,0.05,RA,,0.62,WeatherDisplay:10.37,2013-02-24 15:36:00,
2013-02-24 10:41:00,44.2,41.5,29.52,North,0,5.6,5.6,90,0.06,RA,,0.63,WeatherDisplay:10.37,2013-02-24 15:41:00,
2013-02-24 10:46:00,44.1,41.3,29.52,North,0,3.1,4.6,90,0.07,RA,,0.64,WeatherDisplay:10.37,2013-02-24 15:46:00,
2013-02-24 10:51:00,43.9,41.1,29.51,NNE,22,6.4,6.4,90,0.06,RA,,0.64,WeatherDisplay:10.37,2013-02-24 15:51:00,
2013-02-24 10:56:00,43.7,41.0,29.51,North,0,2.4,5.8,90,0.07,RA,,0.65,WeatherDisplay:10.37,2013-02-24 15:56:00,
2013-02-24 11:01:00,43.7,41.0,29.51,ENE,68,1.8,5.4,90,0.07,RA,,0.66,WeatherDisplay:10.37,2013-02-24 16:01:00,
2013-02-24 11:06:00,43.7,41.0,29.52,North,0,2.0,4.6,90,0.07,RA,,0.66,WeatherDisplay:10.37,2013-02-24 16:06:00,
2013-02-24 11:11:00,43.7,41.0,29.52,North,0,1.8,5.8,90,0.07,RA,,0.67,WeatherDisplay:10.37,2013-02-24 16:11:00,
2013-02-24 11:16:00,43.5,40.5,29.52,North,0,4.0,6.9,89,0.07,RA,,0.67,WeatherDisplay:10.37,2013-02-24 16:16:00,
2013-02-24 11:21:00,43.3,40.6,29.52,NNE,22,3.8,9.2,90,0.07,RA,,0.68,WeatherDisplay:10.37,2013-02-24 16:21:00,
2013-02-24 11:26:00,43.3,40.6,29.51,ENE,68,5.4,5.4,90,0.07,RA,,0.68,WeatherDisplay:10.37,2013-02-24 16:26:00,
2013-02-24 11:31:00,43.3,40.6,29.51,NNE,22,4.5,6.9,90,0.08,RA,,0.69,WeatherDisplay:10.37,2013-02-24 16:31:00,
2013-02-24 11:36:00,43.2,40.4,29.51,NE,45,4.7,9.2,90,0.07,RA,,0.69,WeatherDisplay:10.37,2013-02-24 16:36:00,
2013-02-24 11:41:00,43.2,40.4,29.51,ENE,68,2.9,2.9,90,0.06,,,0.69,WeatherDisplay:10.37,2013-02-24 16:41:00,
2013-02-24 11:46:00,43.3,40.6,29.51,North,0,3.3,6.9,90,0.07,RA,,0.70,WeatherDisplay:10.37,2013-02-24 16:46:00,
2013-02-24 11:51:00,43.2,40.4,29.51,NNW,338,1.1,8.1,90,0.06,RA,,0.70,WeatherDisplay:10.37,2013-02-24 16:51:00,
2013-02-24 11:56:00,43.0,40.2,29.51,NNE,22,3.8,5.8,90,0.05,CLR,,0.70,WeatherDisplay:10.37,2013-02-24 16:56:00,
2013-02-24 12:01:00,42.8,40.1,29.50,North,0,8.5,9.2,90,0.05,RA,,0.71,WeatherDisplay:10.37,2013-02-24 17:01:00,
2013-02-24 12:06:00,42.6,39.9,29.50,NNW,338,2.0,5.8,90,0.05,RA,,0.71,WeatherDisplay:10.37,2013-02-24 17:06:00,
2013-02-24 12:11:00,42.6,39.9,29.50,NE,45,1.6,4.6,90,0.04,CLR,,0.71,WeatherDisplay:10.37,2013-02-24 17:11:00,
2013-02-24 12:16:00,42.8,40.1,29.51,South,180,2.9,4.6,90,0.05,RA,,0.72,WeatherDisplay:10.37,2013-02-24 17:16:00,
2013-02-24 12:21:00,42.8,40.1,29.50,NE,45,7.4,7.4,90,0.04,RA,,0.72,WeatherDisplay:10.37,2013-02-24 17:21:00,
2013-02-24 12:26:00,42.8,40.1,29.51,NNE,22,2.6,4.6,90,0.04,,,0.72,WeatherDisplay:10.37,2013-02-24 17:26:00,
2013-02-24 12:31:00,42.8,40.1,29.51,NNE,22,4.0,6.9,90,0.04,RA,,0.73,WeatherDisplay:10.37,2013-02-24 17:31:00,
2013-02-24 12:36:00,42.8,40.1,29.51,ENE,68,1.1,4.6,90,0.04,RA,,0.74,WeatherDisplay:10.37,2013-02-24 17:36:00,
2013-02-24 12:41:00,42.8,40.1,29.51,North,0,4.7,4.7,90,0.06,RA,,0.75,WeatherDisplay:10.37,2013-02-24 17:41:00,
2013-02-24 12:46:00,42.8,40.1,29.51,NNW,338,2.9,4.6,90,0.06,RA,,0.76,WeatherDisplay:10.37,2013-02-24 17:46:00,
2013-02-24 12:51:00,42.8,40.1,29.51,NW,315,3.8,4.6,90,0.06,RA,,0.77,WeatherDisplay:10.37,2013-02-24 17:51:00,
2013-02-24 12:56:00,42.8,40.1,29.51,North,0,3.3,6.9,90,0.07,RA,,0.77,WeatherDisplay:10.37,2013-02-24 17:56:00,
2013-02-24 13:01:00,42.6,39.6,29.51,NNW,338,2.9,6.9,89,0.07,RA,,0.78,WeatherDisplay:10.37,2013-02-24 18:01:00,
2013-02-24 13:06:00,42.3,39.2,29.51,North,0,6.2,10.4,89,0.07,RA,,0.78,WeatherDisplay:10.37,2013-02-24 18:06:00,
2013-02-24 13:11:00,42.1,39.4,29.51,East,90,6.2,10.5,90,0.07,CLR,,0.80,WeatherDisplay:10.37,2013-02-24 18:11:00,
2013-02-24 13:16:00,41.9,39.2,29.51,NNE,22,6.9,6.9,90,0.08,RA,,0.80,WeatherDisplay:10.37,2013-02-24 18:16:00,
2013-02-24 13:21:00,41.5,38.8,29.51,NE,45,1.6,6.9,90,0.08,RA,,0.80,WeatherDisplay:10.37,2013-02-24 18:21:00,
2013-02-24 13:26:00,41.4,38.6,29.51,ENE,68,6.0,6.9,90,0.09,RA,,0.81,WeatherDisplay:10.37,2013-02-24 18:26:00,
2013-02-24 13:31:00,41.0,38.3,29.51,NW,315,5.4,8.1,90,0.09,RA,,0.82,WeatherDisplay:10.37,2013-02-24 18:31:00,
2013-02-24 13:36:00,41.0,38.3,29.51,North,0,1.8,2.3,90,0.09,RA,,0.84,WeatherDisplay:10.37,2013-02-24 18:36:00,
2013-02-24 13:41:00,40.8,38.1,29.52,NNW,338,4.0,4.6,90,0.10,RA,,0.85,WeatherDisplay:10.37,2013-02-24 18:41:00,
2013-02-24 13:46:00,40.6,37.9,29.52,North,0,5.2,6.9,90,0.11,RA,,0.87,WeatherDisplay:10.37,2013-02-24 18:46:00,
2013-02-24 13:51:00,40.3,37.9,29.53,NNW,338,6.2,9.2,91,0.11,RA,,0.87,WeatherDisplay:10.37,2013-02-24 18:51:00,
2013-02-24 13:56:00,40.3,37.9,29.53,NNW,338,8.3,10.4,91,0.11,RA,,0.89,WeatherDisplay:10.37,2013-02-24 18:56:00,
2013-02-24 14:01:00,39.9,37.5,29.53,North,0,1.1,5.8,91,0.11,RA,,0.89,WeatherDisplay:10.37,2013-02-24 19:01:00,
2013-02-24 14:06:00,39.9,37.5,29.54,NNW,338,5.9,5.9,91,0.12,RA,,0.91,WeatherDisplay:10.37,2013-02-24 19:06:00,
2013-02-24 14:11:00,39.7,37.3,29.54,NW,315,6.2,6.2,91,0.12,RA,,0.92,WeatherDisplay:10.37,2013-02-24 19:11:00,
2013-02-24 14:16:00,39.6,37.2,29.54,North,0,2.4,5.8,91,0.13,RA,,0.93,WeatherDisplay:10.37,2013-02-24 19:16:00,
2013-02-24 14:21:00,39.6,37.2,29.54,NNW,338,4.7,6.9,91,0.12,RA,,0.93,WeatherDisplay:10.37,2013-02-24 19:21:00,
2013-02-24 14:26:00,39.6,37.2,29.53,NE,45,2.9,12.7,91,0.12,RA,,0.94,WeatherDisplay:10.37,2013-02-24 19:26:00,
2013-02-24 14:31:00,39.2,36.8,29.53,ENE,68,9.7,9.7,91,0.12,RA,,0.94,WeatherDisplay:10.37,2013-02-24 19:31:00,
2013-02-24 14:36:00,39.4,37.0,29.53,NNW,338,4.3,8.1,91,0.12,RA,,0.96,WeatherDisplay:10.37,2013-02-24 19:36:00,
2013-02-24 14:41:00,39.2,36.8,29.53,North,0,2.4,8.1,91,0.10,RA,,0.96,WeatherDisplay:10.37,2013-02-24 19:41:00,
2013-02-24 14:46:00,39.2,36.8,29.53,NE,45,4.0,6.9,91,0.09,,,0.96,WeatherDisplay:10.37,2013-02-24 19:46:00,
2013-02-24 14:51:00,39.4,36.7,29.52,NNW,338,4.0,5.8,90,0.08,CLR,,0.96,WeatherDisplay:10.37,2013-02-24 19:51:00,
2013-02-24 14:56:00,39.2,36.5,29.52,ENE,68,12.1,12.1,90,0.07,CLR,,0.96,WeatherDisplay:10.37,2013-02-24 19:56:00,
2013-02-24 15:01:00,39.2,36.5,29.54,NNW,338,4.7,6.9,90,0.06,CLR,,0.96,WeatherDisplay:10.37,2013-02-24 20:01:00,
2013-02-24 15:06:00,39.2,36.5,29.55,North,0,4.0,5.8,90,0.05,CLR,,0.96,WeatherDisplay:10.37,2013-02-24 20:06:00,
2013-02-24 15:11:00,39.0,36.3,29.55,East,90,11.4,11.4,90,0.04,CLR,,0.96,WeatherDisplay:10.37,2013-02-24 20:11:00,
2013-02-24 15:16:00,38.8,36.2,29.55,ENE,68,6.2,9.2,90,0.03,CLR,,0.96,WeatherDisplay:10.37,2013-02-24 20:16:00,
2013-02-24 15:21:00,38.7,36.0,29.56,NNE,22,4.7,9.2,90,0.03,CLR,,0.96,WeatherDisplay:10.37,2013-02-24 20:21:00,
2013-02-24 15:26:00,38.7,36.0,29.56,NNW,338,3.8,9.2,90,0.02,CLR,,0.96,WeatherDisplay:10.37,2013-02-24 20:26:00,
2013-02-24 15:31:00,38.7,36.0,29.56,NNE,22,1.8,5.8,90,0.01,CLR,,0.96,WeatherDisplay:10.37,2013-02-24 20:31:00,
2013-02-24 15:36:00,38.5,35.8,29.57,ENE,68,5.4,5.8,90,0.00,CLR,,0.96,WeatherDisplay:10.37,2013-02-24 20:36:00,
2013-02-24 15:41:00,38.1,35.2,29.57,NE,45,4.7,11.5,89,0.00,CLR,,0.96,WeatherDisplay:10.37,2013-02-24 20:41:00,
2013-02-24 15:46:00,37.9,35.0,29.57,ENE,68,4.0,10.4,89,0.00,CLR,,0.96,WeatherDisplay:10.37,2013-02-24 20:46:00,
2013-02-24 15:51:00,37.8,35.1,29.57,ENE,68,2.0,6.9,90,0.01,RA,,0.96,WeatherDisplay:10.37,2013-02-24 20:51:00,
2013-02-24 15:56:00,37.6,34.9,29.57,NNW,338,6.2,6.9,90,0.01,RA,,0.96,WeatherDisplay:10.37,2013-02-24 20:56:00,
2013-02-24 16:01:00,37.4,34.7,29.58,NW,315,0.7,4.6,90,0.02,RA,,0.98,WeatherDisplay:10.37,2013-02-24 21:01:00,
2013-02-24 16:06:00,37.2,34.3,29.58,NNW,338,3.6,10.4,89,0.03,RA,,0.99,WeatherDisplay:10.37,2013-02-24 21:06:00,
2013-02-24 16:11:00,37.0,34.1,29.58,ENE,68,2.2,6.9,89,0.03,RA,,0.99,WeatherDisplay:10.37,2013-02-24 21:11:00,
2013-02-24 16:16:00,36.7,33.7,29.58,NW,315,3.3,5.8,89,0.04,RA,,1.00,WeatherDisplay:10.37,2013-02-24 21:16:00,
2013-02-24 16:21:00,36.3,33.4,29.58,NNW,338,1.1,8.1,89,0.04,RA,,1.00,WeatherDisplay:10.37,2013-02-24 21:21:00,
2013-02-24 16:26:00,36.1,33.2,29.58,NNW,338,5.6,5.8,89,0.05,RA,,1.01,WeatherDisplay:10.37,2013-02-24 21:26:00,
2013-02-24 16:31:00,36.0,33.3,29.58,NNE,22,4.0,4.6,90,0.05,RA,,1.01,WeatherDisplay:10.37,2013-02-24 21:31:00,
2013-02-24 16:36:00,36.0,33.3,29.59,NNW,338,3.8,4.6,90,0.05,,,1.01,WeatherDisplay:10.37,2013-02-24 21:36:00,
2013-02-24 16:41:00,35.8,33.1,29.59,NNE,22,4.7,9.2,90,0.06,RA,,1.02,WeatherDisplay:10.37,2013-02-24 21:41:00,
2013-02-24 16:46:00,35.6,33.0,29.59,North,0,6.2,6.2,90,0.06,RA,,1.02,WeatherDisplay:10.37,2013-02-24 21:46:00,
2013-02-24 16:51:00,35.6,33.0,29.59,NNW,338,2.6,4.6,90,0.05,CLR,,1.02,WeatherDisplay:10.37,2013-02-24 21:51:00,
2013-02-24 16:56:00,35.4,32.8,29.59,NW,315,2.4,9.2,90,0.05,CLR,,1.02,WeatherDisplay:10.37,2013-02-24 21:56:00,
2013-02-24 17:01:00,35.4,32.8,29.59,NNW,338,5.2,5.2,90,0.04,CLR,,1.02,WeatherDisplay:10.37,2013-02-24 22:01:00,
2013-02-24 17:06:00,35.2,32.9,29.60,WNW,292,5.4,5.8,91,0.03,CLR,,1.02,WeatherDisplay:10.37,2013-02-24 22:06:00,
2013-02-24 17:11:00,35.2,32.9,29.59,NNW,338,4.3,5.8,91,0.03,CLR,,1.02,WeatherDisplay:10.37,2013-02-24 22:11:00,
2013-02-24 17:16:00,35.2,32.9,29.59,NW,315,4.3,4.6,91,0.02,CLR,,1.02,WeatherDisplay:10.37,2013-02-24 22:16:00,
2013-02-24 17:21:00,35.2,32.9,29.60,NW,315,0.7,6.9,91,0.02,CLR,,1.02,WeatherDisplay:10.37,2013-02-24 22:21:00,
2013-02-24 17:26:00,35.2,32.9,29.60,NNW,338,6.9,6.9,91,0.02,RA,,1.03,WeatherDisplay:10.37,2013-02-24 22:26:00,
2013-02-24 17:31:00,35.2,32.9,29.61,NNE,22,1.6,4.6,91,0.02,RA,,1.03,WeatherDisplay:10.37,2013-02-24 22:31:00,
2013-02-24 17:36:00,35.1,32.7,29.61,North,0,2.0,3.5,91,0.02,CLR,,1.03,WeatherDisplay:10.37,2013-02-24 22:36:00,
2013-02-24 17:41:00,34.9,32.5,29.61,NNW,338,1.1,6.9,91,0.02,RA,,1.04,WeatherDisplay:10.37,2013-02-24 22:41:00,
2013-02-24 17:46:00,34.9,32.5,29.62,NW,315,2.2,6.9,91,0.02,RA,,1.04,WeatherDisplay:10.37,2013-02-24 22:46:00,
2013-02-24 17:51:00,34.9,32.5,29.62,NW,315,3.3,4.6,91,0.02,,,1.04,WeatherDisplay:10.37,2013-02-24 22:51:00,
2013-02-24 17:56:00,34.9,32.5,29.63,NNW,338,4.9,4.9,91,0.02,CLR,,1.04,WeatherDisplay:10.37,2013-02-24 22:56:00,
2013-02-24 18:01:00,34.9,32.5,29.63,WNW,292,1.8,4.6,91,0.02,CLR,,1.04,WeatherDisplay:10.37,2013-02-24 23:01:00,
2013-02-24 18:06:00,34.9,32.5,29.63,North,0,5.9,6.9,91,0.02,CLR,,1.05,WeatherDisplay:10.37,2013-02-24 23:06:00,
2013-02-24 18:11:00,34.9,32.5,29.64,NNW,338,1.1,4.6,91,0.03,RA,,1.05,WeatherDisplay:10.37,2013-02-24 23:11:00,
2013-02-24 18:16:00,34.9,32.8,29.64,NNW,338,2.2,2.2,92,0.03,,,1.05,WeatherDisplay:10.37,2013-02-24 23:16:00,
2013-02-24 18:21:00,35.1,33.0,29.64,North,0,2.6,6.9,92,0.03,CLR,,1.05,WeatherDisplay:10.37,2013-02-24 23:21:00,
2013-02-24 18:26:00,35.1,33.0,29.64,ENE,68,1.8,5.8,92,0.02,CLR,,1.05,WeatherDisplay:10.37,2013-02-24 23:26:00,
2013-02-24 18:31:00,35.1,33.0,29.65,East,90,1.8,3.5,92,0.02,CLR,,1.05,WeatherDisplay:10.37,2013-02-24 23:31:00,
2013-02-24 18:36:00,35.1,33.0,29.65,NW,315,3.1,9.2,92,0.03,RA,,1.06,WeatherDisplay:10.37,2013-02-24 23:36:00,
2013-02-24 18:41:00,35.1,33.0,29.65,North,0,6.2,6.9,92,0.02,RA,,1.06,WeatherDisplay:10.37,2013-02-24 23:41:00,
2013-02-24 18:46:00,35.1,33.0,29.66,ENE,68,2.9,4.6,92,0.02,CLR,,1.06,WeatherDisplay:10.37,2013-02-24 23:46:00,
2013-02-24 18:51:00,35.1,33.0,29.66,NNW,338,4.9,5.4,92,0.02,CLR,,1.06,WeatherDisplay:10.37,2013-02-24 23:51:00,
2013-02-24 18:56:00,35.1,33.0,29.66,NE,45,0.9,2.3,92,0.02,CLR,,1.06,WeatherDisplay:10.37,2013-02-24 23:56:00,
2013-02-24 19:01:00,35.1,33.0,29.66,NNW,338,2.4,4.0,92,0.02,CLR,,1.06,WeatherDisplay:10.37,2013-02-25 00:01:00,
2013-02-24 19:06:00,35.1,33.0,29.67,NNW,338,2.0,5.8,92,0.02,RA,,1.07,WeatherDisplay:10.37,2013-02-25 00:06:00,
2013-02-24 19:11:00,34.9,32.8,29.67,North,0,2.2,8.1,92,0.02,RA,,1.07,WeatherDisplay:10.37,2013-02-25 00:11:00,
2013-02-24 19:16:00,34.9,32.8,29.67,NNW,338,0.9,3.5,92,0.02,,,1.07,WeatherDisplay:10.37,2013-02-25 00:16:00,
2013-02-24 19:21:00,34.7,32.6,29.68,North,0,0.5,4.6,92,0.02,CLR,,1.07,WeatherDisplay:10.37,2013-02-25 00:21:00,
2013-02-24 19:26:00,34.7,32.6,29.69,North,0,0.7,1.1,92,0.03,RA,,1.08,WeatherDisplay:10.37,2013-02-25 00:26:00,
2013-02-24 19:31:00,34.5,32.4,29.69,North,0,0.5,3.5,92,0.03,RA,,1.08,WeatherDisplay:10.37,2013-02-25 00:31:00,
2013-02-24 19:36:00,34.3,32.0,29.69,WNW,292,2.6,3.5,91,0.02,CLR,,1.08,WeatherDisplay:10.37,2013-02-25 00:36:00,
2013-02-24 19:41:00,34.3,32.0,29.69,NNW,338,1.1,6.9,91,0.02,CLR,,1.08,WeatherDisplay:10.37,2013-02-25 00:41:00,
2013-02-24 19:46:00,34.2,31.8,29.69,North,0,4.0,6.9,91,0.02,CLR,,1.08,WeatherDisplay:10.37,2013-02-25 00:46:00,
2013-02-24 19:51:00,34.2,32.1,29.69,NNW,338,0.7,2.3,92,0.02,CLR,,1.08,WeatherDisplay:10.37,2013-02-25 00:51:00,
2013-02-24 19:56:00,34.0,31.6,29.70,NNW,338,0.5,3.5,91,0.02,CLR,,1.08,WeatherDisplay:10.37,2013-02-25 00:56:00,
2013-02-24 20:01:00,33.8,31.5,29.70,NNW,338,0.5,3.5,91,0.02,CLR,,1.08,WeatherDisplay:10.37,2013-02-25 01:01:00,
2013-02-24 20:06:00,33.8,31.5,29.70,NNW,338,0.7,2.3,91,0.01,CLR,,1.08,WeatherDisplay:10.37,2013-02-25 01:06:00,
2013-02-24 20:11:00,33.6,31.3,29.70,NNW,338,2.4,2.4,91,0.01,CLR,,1.08,WeatherDisplay:10.37,2013-02-25 01:11:00,
2013-02-24 20:16:00,33.4,31.1,29.70,NNE,22,0.2,2.3,91,0.01,CLR,,1.08,WeatherDisplay:10.37,2013-02-25 01:16:00,
2013-02-24 20:21:00,33.4,31.1,29.70,NW,315,1.1,2.3,91,0.01,CLR,,1.08,WeatherDisplay:10.37,2013-02-25 01:21:00,
2013-02-24 20:26:00,33.4,31.1,29.71,North,0,4.5,4.5,91,0.00,CLR,,1.08,WeatherDisplay:10.37,2013-02-25 01:26:00,
2013-02-24 20:31:00,33.4,31.4,29.71,North,0,0.5,1.1,92,0.00,CLR,,1.08,WeatherDisplay:10.37,2013-02-25 01:31:00,
2013-02-24 20:36:00,33.4,31.4,29.71,NNW,338,1.1,1.1,92,0.00,CLR,,1.08,WeatherDisplay:10.37,2013-02-25 01:36:00,
2013-02-24 20:41:00,33.4,31.4,29.72,NW,315,0.5,2.3,92,0.00,CLR,,1.08,WeatherDisplay:10.37,2013-02-25 01:41:00,
2013-02-24 20:46:00,33.3,31.2,29.72,NNW,338,1.8,2.3,92,0.00,CLR,,1.08,WeatherDisplay:10.37,2013-02-25 01:46:00,
2013-02-24 20:51:00,33.3,31.2,29.72,WNW,292,0.7,1.1,92,0.00,CLR,,1.08,WeatherDisplay:10.37,2013-02-25 01:51:00,
2013-02-24 20:56:00,33.4,31.4,29.72,NNE,22,0.5,0.5,92,0.00,CLR,,1.08,WeatherDisplay:10.37,2013-02-25 01:56:00,
2013-02-24 21:01:00,33.4,31.4,29.72,NNW,338,0.7,2.3,92,0.01,RA,,1.09,WeatherDisplay:10.37,2013-02-25 02:01:00,
2013-02-24 21:06:00,33.3,31.2,29.72,North,0,1.6,1.6,92,0.01,RA,,1.09,WeatherDisplay:10.37,2013-02-25 02:06:00,
2013-02-24 21:11:00,33.3,31.2,29.72,WSW,248,1.1,3.5,92,0.01,CLR,,1.09,WeatherDisplay:10.37,2013-02-25 02:11:00,
2013-02-24 21:16:00,33.3,31.2,29.72,NNW,338,1.1,1.1,92,0.01,CLR,,1.09,WeatherDisplay:10.37,2013-02-25 02:16:00,
2013-02-24 21:21:00,33.3,31.2,29.73,NW,315,3.3,3.3,92,0.01,CLR,,1.09,WeatherDisplay:10.37,2013-02-25 02:21:00,
2013-02-24 21:26:00,33.3,31.2,29.73,WNW,292,2.4,4.6,92,0.01,CLR,,1.09,WeatherDisplay:10.37,2013-02-25 02:26:00,
2013-02-24 21:31:00,33.3,31.2,29.73,North,0,4.3,4.3,92,0.01,CLR,,1.09,WeatherDisplay:10.37,2013-02-25 02:31:00,
2013-02-24 21:36:00,33.1,31.0,29.73,NNW,338,0.9,2.3,92,0.01,CLR,,1.09,WeatherDisplay:10.37,2013-02-25 02:36:00,
2013-02-24 21:41:00,33.3,31.2,29.73,NW,315,2.4,4.6,92,0.01,CLR,,1.09,WeatherDisplay:10.37,2013-02-25 02:41:00,
2013-02-24 21:46:00,33.3,31.2,29.74,NNW,338,1.4,2.3,92,0.01,CLR,,1.09,WeatherDisplay:10.37,2013-02-25 02:46:00,
2013-02-24 21:51:00,33.3,31.2,29.74,NNW,338,2.2,3.5,92,0.01,CLR,,1.09,WeatherDisplay:10.37,2013-02-25 02:51:00,
2013-02-24 21:56:00,33.3,31.2,29.74,WNW,292,3.3,4.6,92,0.01,CLR,,1.09,WeatherDisplay:10.37,2013-02-25 02:56:00,
2013-02-24 22:01:00,33.3,31.2,29.74,NW,315,1.6,4.6,92,0.00,CLR,,1.09,WeatherDisplay:10.37,2013-02-25 03:01:00,
2013-02-24 22:06:00,33.3,31.2,29.74,WNW,292,2.0,6.9,92,0.00,CLR,,1.09,WeatherDisplay:10.37,2013-02-25 03:06:00,
2013-02-24 22:11:00,33.3,31.2,29.74,North,0,1.8,3.5,92,0.00,CLR,,1.09,WeatherDisplay:10.37,2013-02-25 03:11:00,
2013-02-24 22:16:00,33.3,31.2,29.74,NE,45,3.6,4.6,92,0.00,CLR,,1.09,WeatherDisplay:10.37,2013-02-25 03:16:00,
2013-02-24 22:21:00,33.3,31.2,29.75,NNE,22,3.3,6.9,92,0.00,CLR,,1.09,WeatherDisplay:10.37,2013-02-25 03:21:00,
2013-02-24 22:26:00,33.3,31.2,29.75,WNW,292,1.4,4.6,92,0.00,CLR,,1.09,WeatherDisplay:10.37,2013-02-25 03:26:00,
2013-02-24 22:31:00,33.3,31.2,29.75,NW,315,1.6,4.6,92,0.00,CLR,,1.09,WeatherDisplay:10.37,2013-02-25 03:31:00,
2013-02-24 22:36:00,33.3,31.2,29.75,SSE,158,1.1,3.5,92,0.00,CLR,,1.09,WeatherDisplay:10.37,2013-02-25 03:36:00,
2013-02-24 22:41:00,33.3,31.2,29.75,NNE,22,1.4,4.6,92,0.00,CLR,,1.09,WeatherDisplay:10.37,2013-02-25 03:41:00,
2013-02-24 22:46:00,33.3,31.2,29.75,NNE,22,3.3,4.6,92,0.00,CLR,,1.09,WeatherDisplay:10.37,2013-02-25 03:46:00,
2013-02-24 22:51:00,33.3,31.2,29.76,NNW,338,4.7,4.7,92,0.00,CLR,,1.09,WeatherDisplay:10.37,2013-02-25 03:51:00,
2013-02-24 22:56:00,33.3,31.2,29.76,SE,135,0.5,2.3,92,0.01,RA,,1.10,WeatherDisplay:10.37,2013-02-25 03:56:00,
2013-02-24 23:02:00,33.3,31.2,29.76,NW,315,5.6,5.6,92,0.01,RA,,1.10,WeatherDisplay:10.37,2013-02-25 04:02:00,
2013-02-24 23:07:00,33.3,31.2,29.76,NNW,338,6.2,6.2,92,0.01,CLR,,1.10,WeatherDisplay:10.37,2013-02-25 04:07:00,
2013-02-24 23:12:00,33.3,31.2,29.76,NNW,338,0.9,4.6,92,0.01,CLR,,1.10,WeatherDisplay:10.37,2013-02-25 04:12:00,
2013-02-24 23:17:00,33.3,31.2,29.76,NW,315,2.4,4.6,92,0.01,CLR,,1.10,WeatherDisplay:10.37,2013-02-25 04:17:00,
2013-02-24 23:22:00,33.3,31.2,29.77,WSW,248,1.4,5.8,92,0.01,CLR,,1.10,WeatherDisplay:10.37,2013-02-25 04:22:00,
2013-02-24 23:27:00,33.3,31.2,29.77,NE,45,0.7,3.5,92,0.01,CLR,,1.10,WeatherDisplay:10.37,2013-02-25 04:27:00,
2013-02-24 23:32:00,33.3,31.2,29.77,NNW,338,1.6,5.8,92,0.01,CLR,,1.10,WeatherDisplay:10.37,2013-02-25 04:32:00,
2013-02-24 23:37:00,33.3,31.2,29.77,NW,315,1.6,1.6,92,0.01,CLR,,1.10,WeatherDisplay:10.37,2013-02-25 04:37:00,
2013-02-24 23:42:00,33.3,31.2,29.77,NW,315,2.6,5.8,92,0.01,CLR,,1.10,WeatherDisplay:10.37,2013-02-25 04:42:00,
2013-02-24 23:47:00,33.3,31.2,29.77,NNW,338,3.3,3.5,92,0.02,RA,,1.11,WeatherDisplay:10.37,2013-02-25 04:47:00,
2013-02-24 23:52:00,33.3,31.2,29.77,North,0,2.6,4.6,92,0.01,RA,,1.11,WeatherDisplay:10.37,2013-02-25 04:52:00,
2013-02-24 23:57:00,33.3,31.2,29.78,NW,315,2.0,4.6,92,0.01,CLR,,1.11,WeatherDisplay:10.37,2013-02-25 04:57:00,